Location: Esparron
(44.4538°N, 5.9028°E)
Time: 04:44:57
(UTC+00:00)

Daily predictions for brighter satellites

Satellite Brightness Start Highest point End
(mag) Time Altitude Azimuth Time Altitude Azimuth Time Altitude Azimuth
COSMOS 2455 3.7 00:04:46 30° SE 00:06:13 34° ESE 00:11:33 10° NE
MetOp-A 3.9 00:06:33 44° W 00:06:33 44° W 00:10:02 10° NNW
Nadezhda 1 Rocket 4.5 00:04:29 33° SW 00:06:54 49° WNW 00:12:54 10° N
Cosmos 2082 Rocket 3.1 00:03:23 10° NW 00:08:18 32° WSW 00:09:02 31° WSW
Cosmos 962 Rocket 4.5 00:03:19 10° N 00:09:41 77° W 00:12:02 42° S
Cosmos 2278 Rocket 4.2 00:07:12 10° W 00:11:29 22° NW 00:15:48 10° N
Cosmos 1869 3.5 00:10:18 10° N 00:13:39 48° ENE 00:13:40 48° E
IDEFIX/ARIANE 42P 4.4 00:10:32 10° NE 00:14:16 19° E 00:16:31 15° ESE
NOSS 3-1 (A) 3.9 00:14:35 29° SE 00:15:02 29° ESE 00:19:30 10° NE
CZ-4C R/B 3.4 00:13:19 10° NNE 00:16:54 57° E 00:16:54 57° E
Cosmos 1356 Rocket 3.5 00:13:51 10° N 00:17:50 63° ENE 00:18:25 55° ESE
SL-8 R/B 3.7 00:15:45 28° W 00:18:14 76° NNW 00:23:01 10° ENE
Cosmos 1452 Rocket 4.0 00:15:10 10° NNW 00:20:08 43° WSW 00:20:55 40° SW
Cosmos 1992 Rocket 4.1 00:15:05 10° NNW 00:20:16 69° ENE 00:22:24 35° SE
USA 308 3.1 00:23:07 46° E 00:23:07 46° E 00:26:24 10° ENE
Meteor 2-15 Rocket 4.4 00:17:21 10° N 00:23:30 81° E 00:26:05 37° SSE
NOSS 3-1 (C) 2.8 00:22:32 50° SW 00:23:46 85° NW 00:29:14 10° NE
Cosmos 1908 Rocket 3.7 00:20:35 10° N 00:25:01 68° E 00:26:03 49° SE
CZ-3B R/B 4.2 00:28:33 29° SW 00:32:32 85° SE 01:02:22 10° NE
COSMOS 2406 3.7 00:30:36 10° NW 00:35:56 42° WSW 00:37:01 38° SW
Cosmos 2341 Rocket 4.1 00:29:53 10° NNW 00:36:02 64° W 00:38:22 38° SSW
SL-8 Rocket 4.2 00:33:44 10° NNW 00:39:44 57° W 00:41:58 37° SSW
SL-4 R/B 1.6 00:42:23 64° NE 00:42:23 64° NE 00:45:08 10° ENE
Cosmos 1782 Rocket 4.1 00:39:05 10° N 00:43:24 53° ENE 00:45:03 33° SE
Cosmos 2297 3.8 00:45:21 37° SW 00:47:40 73° WNW 00:53:25 10° NNE
Cosmos 2369 Rocket 2.5 00:50:46 32° SW 00:53:10 57° WNW 00:58:42 10° NNE
DELTA 2 DEB (DPAF) 3.5 00:49:58 10° N 00:53:29 68° WNW 00:53:47 64° WSW
Lacrosse 4 Rocket 1.8 00:49:56 10° NNW 00:54:06 60° ENE 00:56:29 24° SE
BREEZE-M DEB (TANK) 4.4 00:34:13 10° WNW 00:55:43 73° N 01:00:07 10° E
CZ-2C R/B 3.9 00:55:17 22° WSW 00:56:07 23° W 01:00:13 10° NW
USA 290 2.9 00:54:53 10° NNW 00:57:15 41° WNW 00:57:15 41° WNW
Cosmos 2228 Rocket 4.4 00:59:27 24° W 01:00:33 26° WNW 01:04:17 10° NNW
ADEOS Rocket 3.5 00:56:29 10° NNE 01:02:37 51° E 01:05:49 25° SSE
MSX 4.2 00:57:53 10° NNE 01:03:34 55° E 01:06:35 27° SSE
Lacrosse 5 rocket 4.4 01:07:34 10° N 01:08:23 11° N 01:09:13 10° NNE
Cosmos 1023 Rocket 4.4 01:06:38 38° S 01:08:35 75° ESE 01:13:38 10° NNE
USA 32 4.3 01:03:24 10° N 01:08:35 62° E 01:11:43 24° SSE
USA 276 3.9 01:09:04 16° WNW 01:10:48 28° N 01:13:28 10° NE
In-Cosmos 22 Rocket 4.1 01:09:23 35° SSW 01:11:47 86° W 01:17:24 10° N
Cosmos 1818 3.6 01:09:43 33° SW 01:12:12 74° NW 01:17:41 10° NNE
Cosmos 2239 Rocket 4.4 01:11:49 10° N 01:18:01 77° W 01:21:32 27° S
Cosmos 1300 Rocket 3.8 01:13:51 10° NNW 01:18:03 50° W 01:19:07 40° SW
NPP 4.1 01:12:54 10° NNE 01:18:11 53° E 01:21:18 24° SSE
ARIANE 6 FM1 Upper Stage 4.1 01:16:12 18° W 01:18:32 30° NW 01:22:13 10° NNE
Cosmos 2242 Rocket 4.3 01:20:29 25° SSE 01:22:42 47° E 01:26:55 10° NNE
Meteor 2-19 Rocket 4.4 01:24:50 28° SSW 01:28:12 83° W 01:34:18 10° N
Cosmos 1378 Rocket 4.3 01:28:48 22° SSE 01:31:11 46° E 01:35:17 10° NNE
ATLAS 5 CENTAUR R/B 3.4 01:31:41 10° WNW 01:32:55 12° NNW 01:34:11 10° N
Cosmos 1934 Rocket 4.1 01:26:45 10° N 01:33:04 83° E 01:38:14 16° S
Nadezhda 3 Rocket 4.1 01:29:56 28° SSW 01:33:17 64° W 01:39:31 10° N
Envisat 4.4 01:29:38 10° NNE 01:34:07 31° E 01:38:16 11° SSE
Cosmos 1339 Rocket 4.4 01:32:02 27° SSW 01:35:31 77° W 01:41:38 10° N
Meteor 1-21 Rocket 4.3 01:32:42 27° SSW 01:36:03 82° W 01:42:01 10° N
Cosmos 405 Rocket 3.9 01:35:02 19° SE 01:36:14 25° E 01:38:45 10° NE
Cosmos 407 Rocket 3.7 01:37:55 24° S 01:40:51 61° ESE 01:45:54 10° NNE
SJ 16-02 1.9 01:39:46 24° SSE 01:42:00 48° ESE 01:46:06 10° NNE
Cosmos 921 Rocket 2.9 01:41:10 33° SSW 01:43:00 78° WNW 01:47:12 10° NNE
ACS3 Solar Sail 3.5 01:40:49 10° NNW 01:44:32 18° WNW 01:48:09 11° W
USA 308 4.0 01:41:52 15° W 01:44:36 36° NNW 01:48:32 10° NE
COSMOS 2455 3.5 01:47:52 19° WSW 01:51:58 46° NW 01:57:46 10° NNE
IDEFIX/ARIANE 42P 2.8 01:48:56 10° N 01:54:04 58° WNW 01:57:12 23° SW
Cosmos 540 Rocket 3.5 01:50:24 10° NNW 01:55:31 79° ENE 02:00:35 10° SSE
Cosmos 1674 Rocket 4.0 01:53:37 18° S 01:56:48 60° E 02:01:10 10° NNE
SL-19 R/B 3.8 01:59:03 26° S 02:00:45 66° WSW 02:04:00 10° NNW
SL-8 R/B 4.5 01:56:16 10° WNW 02:00:54 52° N 02:05:34 10° ENE
ADEOS II 3.7 01:57:15 10° NE 02:01:45 29° E 02:06:14 10° SSE
Meteor 1-11 4.2 02:00:23 21° SSW 02:04:13 76° WNW 02:09:54 10° N
Cosmos 1697 Rocket 4.4 02:00:17 10° SSE 02:04:46 25° ESE 02:09:15 10° NE
NOSS 3-1 (A) 3.9 02:01:56 15° WSW 02:05:28 40° NW 02:10:50 10° NNE
Resurs 1-4 Rocket 2.7 02:06:57 10° NNE 02:12:06 53° E 02:17:13 10° S
Okean 1 Rocket 3.7 02:08:15 10° N 02:12:31 54° ENE 02:16:44 10° SSE
Cosmos 1656 3.6 02:11:01 19° SSW 02:15:00 89° ESE 02:20:34 10° NNE
Cosmos 2251 Rocket 4.1 02:11:01 13° S 02:15:36 56° ESE 02:20:51 10° NNE
Cosmos 1346 Rocket 3.8 02:14:57 20° WSW 02:16:35 28° WNW 02:19:46 10° NNW
H-2A R/B 2.8 02:12:31 10° NNE 02:17:38 49° E 02:22:34 10° S
SL-4 R/B 3.5 02:16:55 10° WNW 02:19:34 24° N 02:22:12 10° NE
H-2A R/B 4.1 02:16:09 10° SE 02:19:36 33° ENE 02:23:08 10° N
Cosmos 1605 Rocket 4.0 02:14:27 10° N 02:20:45 76° W 02:26:55 10° S
COSMOS 2441 4.5 02:17:00 10° N 02:21:51 67° WNW 02:25:39 16° SSW
Meteor 2-21 4.5 02:19:42 12° S 02:25:33 89° W 02:31:48 10° N
Cosmos 371 Rocket 3.8 02:23:01 18° SW 02:26:25 46° WNW 02:31:04 10° N
Cosmos 1763 Rocket 3.7 02:22:21 10° NNW 02:27:13 48° WSW 02:32:01 10° S
Lacrosse 4 Rocket 3.2 02:29:10 10° WNW 02:31:20 14° WSW 02:31:50 14° WSW
Cosmos 2297 Rocket 2.4 02:29:47 10° NNW 02:35:28 75° ENE 02:41:07 10° SSE
Cosmos 1025 Rocket 3.3 02:34:41 15° SSW 02:38:10 54° WNW 02:42:27 10° N
OPS 8737 4.3 02:35:28 10° NW 02:38:27 48° WSW 02:41:33 10° SSE
Cosmos 2369 Rocket 4.5 02:36:20 10° WNW 02:38:28 12° NW 02:40:37 10° NNW
NOSS 2-2 (D) 3.9 02:35:09 10° NNW 02:38:54 67° NE 02:44:01 10° SE
MOZ.5/SAFIR/RUBIN 5/SL-8 4.1 02:35:53 10° S 02:40:17 46° W 02:44:44 10° NNW
USA 276 3.9 02:41:20 10° NW 02:44:04 31° N 02:46:51 10° ENE
CZ-2D R/B 2.2 02:39:22 10° NNE 02:44:51 89° WNW 02:50:15 10° SSW
Lacrosse 5 rocket 3.8 02:43:24 10° NNW 02:46:02 20° NNE 02:48:36 10° ENE
ADEOS Rocket 4.2 02:42:31 10° N 02:47:43 27° WNW 02:52:32 10° WSW
Cosmos 1980 Rocket 4.1 02:45:05 10° SSE 02:49:40 26° ESE 02:54:17 10° NE
DMSP B5D2-2 4.5 02:46:17 10° S 02:51:17 44° W 02:56:19 10° NNW
ATLAS 3B R/B 3.7 02:46:27 10° S 02:53:41 51° ESE 03:01:13 10° NE
ALOS 2.3 02:49:44 10° N 02:54:15 68° WNW 02:58:46 10° SSW
NOSS 2-2 (C) 4.0 02:51:14 10° NW 02:55:03 43° SW 03:00:13 10° SSE
Cosmos 468 Rocket 4.1 02:53:13 10° NNW 02:58:11 53° WSW 03:03:08 10° S
ARGOS 3.9 02:53:57 10° NNE 02:59:14 54° E 03:04:29 10° S
Spot 2 4.0 02:55:10 10° SSE 02:59:26 88° ENE 03:03:32 10° NNW
Cosmos 2263 Rocket 4.1 02:57:39 10° N 03:02:47 35° NE 03:07:54 10° ESE
Cosmos 1455 Rocket 3.0 03:01:22 10° N 03:05:41 80° W 03:10:01 10° S
Cosmos 405 Rocket 4.3 03:07:31 10° W 03:08:57 13° WNW 03:10:24 10° NW
Cosmos 2292 Rocket 3.3 03:07:08 10° SSW 03:09:54 38° WNW 03:13:00 10° N
Cosmos 2123 Rocket 4.3 03:04:44 10° S 03:11:01 73° E 03:17:19 10° NNE
Cosmos 2084 Rocket 3.3 03:08:04 10° SW 03:12:04 87° NW 03:16:09 10° NE
Okean 2 Rocket 4.0 03:09:01 10° NNW 03:12:51 30° W 03:16:39 10° SSW
Envisat 3.9 03:08:28 10° N 03:13:02 35° WNW 03:17:34 10° SW
SeaSat 1 2.7 03:10:33 10° S 03:15:16 48° WSW 03:20:02 10° NW
CENTAUR R/B 3.4 03:11:50 10° NW 03:20:19 82° SW 03:29:52 10° SSE
BREEZE-M DEB (TANK) 3.8 03:16:53 10° WNW 03:25:17 48° N 03:28:11 10° ENE
